Location: Tom
(33.0437°N, 96.9452°W)
Time: 15:43:05
(UTC-06:00)

N. Korean satellite - Pass Details

Date: 31 January 2019
Orbit: 456 x 510 km, 97.2° (Epoch: 21 February)

Event Time Altitude Azimuth Distance (km) Brightness Sun altitude
Rises 19:01:20 0° 211° (SSW) 2,592 10.9 -13.4°
Reaches altitude 10° 19:04:32 10° 242° (WSW) 1,720 10.6 -14.0°
Maximum altitude 19:06:05 12° 267° (W) 1,587 10.5 -14.4°
Drops below altitude 10° 19:07:39 10° 292° (WNW) 1,729 10.2 -14.7°
Sets 19:10:55 0° 323° (NW) 2,622 10.6 -15.4°
